Preview of NWS' New Version of Forecast
This preview is not operational and should not be used for support decisions.

Regional Weather Roundup (RWR)

Issued by National Weather Service (NWS)

                            
000
ASUS43 KLSX 231707
RWRMO 

WEATHER SUMMARY FOR MISSOURI
NATIONAL WEATHER SERVICE SPRINGFIELD MO
1100 AM CST SAT FEB 23 2019

NOTE: "FAIR" INDICATES FEW OR NO CLOUDS BELOW 12,000 FEET WITH NO
       SIGNIFICANT WEATHER AND/OR OBSTRUCTIONS TO VISIBILITY.
       CURRENT SKY AND/OR WEATHER CONDITIONS ARE NOT AVAILABLE FOR
       CHILLICOTHE AND FARMINGTON.

MOZ001>031-035>038-043-044-053-054-231800-
...NORTHERN AND WESTERN MISSOURI...
  
CITY           SKY/WX    TMP DP  RH WIND       PRES   REMARKS
KANSAS CTY INT RAIN      36  34  92 E15       29.66F VSB 1/16WCI  27  
KANSAS C DTWN  LGT RAIN  38  36  92 NE9G20    29.63F FOG              
LEE'S SUMMIT   LGT RAIN  39  39 100 E6G39     29.62F FOG              
ST JOSEPH      LGT RAIN  36  31  82 NE13      29.66F WCI  27          
CHILLICOTHE      N/A     38  37  97 E8        29.69F                  
KIRKSVILLE     CLOUDY    37  32  82 E8        29.76F FOG              
     
$$
MOZ066>068-077>081-088>096-101>105-231800-
...SOUTHWEST MISSOURI...
  
CITY           SKY/WX    TMP DP  RH WIND       PRES   REMARKS
SPRINGFIELD    LGT RAIN  50  48  93 SE18      29.66F                  
JOPLIN         CLOUDY    56  54  93 SE12G20   29.60F                  
BRANSON        RAIN      46  46 100 SE16G22   29.71S VSB 1/4          
               
$$
MOZ032>034-039>042-045>050-055>058-069>072-231800-
...CENTRAL MISSOURI...  
  
CITY           SKY/WX    TMP DP  RH WIND       PRES   REMARKS
COLUMBIA       FOG       42  41  96 E9        29.71F VSB 1/2          
JEFFERSON CITY RAIN      46  44  93 E8        29.72F FOG              
ROLLA          CLOUDY    54  52  93 SE20G30   29.72F                  
SEDALIA        RAIN      40  32  73 E10       29.67F VSB 1/4          
WHITEMAN AFB   LGT RAIN  38  38 100 E12       29.80  VSB 5/8          
WARRENSBURG    LGT RAIN  36  36 100 E10       29.69R WCI  28          
OSAGE BEACH    TSTM      50  50 100 VRB3      29.68F                  
               
$$
MOZ051-052-059>065-231800-
...EAST CENTRAL MISSOURI...
  
CITY           SKY/WX    TMP DP  RH WIND       PRES   REMARKS
ST LOUIS INTL  FOG       46  45  96 SE13      29.80F VSB 1            
SPIRIT OF STL  CLOUDY    47  46  97 CALM      29.79F FOG              
ST CHARLES     FOG       46  46 100 SE10      29.81F VSB 3/4          
                   
$$
MOZ072>076-082>087-097>100-106>115-231800-
...SOUTH CENTRAL AND SOUTHEAST MISSOURI...
  
CITY           SKY/WX    TMP DP  RH WIND       PRES   REMARKS
CAPE GIRARDEAU CLOUDY    53  51  93 SE6       29.84F                  
FARMINGTON     RAIN      48  48 100 SE10      29.81F VSB 1/4          
POPLAR BLUFF   FOG       48  48 100 NE5       29.82F VSB 1/4          
WEST PLAINS    FOG       49  48  97 SE9G20    29.77F VSB 1/2          
                                       
$$